Location: Владивосток
(43.1151°N, 131.8856°E)
Time: 23:58:31
(UTC+10:00)

First-Move - Pass Details

Date: 11 July 2022
Orbit: 572 x 658 km, 97.6° (Epoch: 14 August)

Event Time Altitude Azimuth Distance (km) Brightness Sun altitude
Rises 04:05:59 0° 30° (NNE) 2,989 ? -14.1°
Reaches altitude 10° 04:09:00 10° 52° (NE) 2,078 ? -13.8°
Maximum altitude 04:11:51 16° 91° (E) 1,692 ? -13.5°
Drops below altitude 10° 04:14:41 10° 130° (SE) 2,069 ? -13.1°
Sets 04:17:40 0° 151° (SSE) 2,971 ? -12.8°
